Flag for China Weather past 2 weeks in Shantou, Guangdong, China

Now
52 °F

Passing clouds.


Feels Like: 51 °F
Forecast: 46 / 61 °F
Wind: 3 mph from North

Location: Shantou Airport

Current Time: Dec 22, 2014 at 12:54:24 AM

Latest Report: Dec 22, 2014 at 12:00 AM


Visibility: N/A

Pressure: 30.30 "Hg

Humidity: 54%

Dew point: 36 °F

Location of ShantouLocation

Historic Weather in Shantou — Graph

°F

Shantou temperature yesterday

Maximum temperature yesterday: 68 °F (at 3:00 PM)
Minimum temperature yesterday: 45 °F (at 7:00 AM)
Average temperature yesterday: 56 °F

Past Weeks' High & Low Weather Summary

 TemperatureHumidityPressure
High72 °F (Dec 8, 12:00 PM)100% (Dec 19, 3:00 PM)30.45 "Hg (Dec 19, 3:00 PM)
Low43 °F (Dec 18, 6:00 AM)19% (Dec 17, 2:00 PM)30.04 "Hg (Dec 10, 3:00 PM)
Average59 °F63%30.22 "Hg
* Reported Dec 6 11:00 PM — Dec 21 11:00 PM, Shantou, Weather by CustomWeather, © 2014

Note: Actual official high and low records may vary slightly from our data, if they occured in-between our weather recording intervals... More about our weather records

Advertising

Shantou weather history for previous 24 hours

 ConditionsComfort  
Time TempWeatherWind HumidityBarometerVisibility
11:00 PM
Dec 21
54 °FPassing clouds.6 mph54%30.30 "HgN/A
10:00 PM55 °FClear.8 mph55%30.30 "Hg10 mi
9:00 PM57 °FClear.10 mph51%30.27 "Hg10 mi
8:00 PM57 °FClear.6 mph55%30.27 "Hg10 mi
7:00 PM59 °FPassing clouds.3 mph55%30.24 "HgN/A
6:00 PM63 °FPassing clouds.6 mph45%30.21 "HgN/A
5:00 PM64 °FPassing clouds.6 mph43%30.21 "HgN/A
4:00 PM66 °FSunny.10 mph37%30.18 "Hg10 mi
3:00 PM68 °FPassing clouds.10 mph35%30.18 "HgN/A
2:00 PM66 °FSunny.13 mph37%30.21 "Hg10 mi
1:00 PM66 °FPassing clouds.13 mph37%30.24 "HgN/A
12:00 PM64 °FPassing clouds.13 mph43%30.27 "HgN/A
11:00 AM63 °FPassing clouds.8 mph45%30.27 "HgN/A
10:00 AM59 °FSunny.10 mph55%30.30 "Hg10 mi
9:00 AM54 °FFog.1 mph82%30.30 "Hg2 mi
8:00 AM50 °FFog.No wind94%30.27 "Hg1 mi
7:00 AM45 °FFog.1 mph100%30.24 "Hg1 mi
6:00 AM46 °FFog.No wind93%30.24 "Hg2 mi
5:00 AM46 °FFog.No wind93%30.21 "Hg3 mi
4:00 AM46 °FFog.1 mph93%30.21 "Hg2 mi
3:00 AM48 °FFog.No wind94%30.21 "Hg3 mi
2:00 AM48 °FFog.1 mph94%30.21 "Hg3 mi
1:00 AM48 °FClear.No wind94%30.21 "Hg4 mi
12:00 AM50 °FClear.3 mph94%30.18 "Hg4 mi
Weather by CustomWeather, © 2014

See weather overviewHow to use our weather pages